Zorg en Hoop Airport

Jump to: basic info | weather | comments

Related pages: nearby airports | nearby navaids | notams | map

Basic information (top)

Codes: ORG SMZO
Location: lon 5.811080, lat -55.190701, elev 10 ft / 3 m msl
Status: small_airport

Weather (top)

Current conditions (rec'd 2014/11/27 00:00Z):

SMZO 270000Z 05004KT 8000 -RA FEW008 24/24 Q1012 NOSIG

Airport forecast (rec'd 2014/11/15 00:00Z):

TAF SMZO 142200Z 1500/1524 09003KT 9999 FEW015 SCT025 TX33/1518Z TN23/1510Z 
     FM151200 09012KT 9999 BKN018 
      TEMPO 1517/1521 5000 TSRA FEW015CB SCT020

Latest comments (top)

KLM flights from Caracas - Paramaribo - Dakar - Madrid - fra: I would like to know if this airport ... [read]

More... (top)

See also NOTAMs and nearby airports and navaids, or visit the Zorg en Hoop Airport page at the main OurAirports website..